Tracking 35331 objects as of 16-Sep-2026
HD Live streaming from Space Station
objects crossing your sky now

COSMOS 1484 DEB


COSMOS 1484 DEB is no longer on orbit


NORAD ID: 22938
Int'l Code: 1983-075AB
Launch date: July 24, 1983
Source: Commonwealth of Independent States (former USSR) (CIS)
Launch site: TYURATAM MISSILE AND SPACE COMPLEX (TTMTR)
Decay date: 1995-05-09

Note: This is SATELLITE DEBRIS
Your satellite tracking list
Your tracking list is empty




NASA's NSSDC Master Catalog

Two Line Element Set (TLE):
1 22938U 83075 AB 95127.01400338  .03223157 +00000-0 +66262-2 0  9997
2 22938 097.4897 162.1269 0015832 209.3619 150.7107 15.93017463074423
Source of the keplerian elements: AFSPC